STARLINK-1676, 46556

Orbit data source: Space-Track

STARLINK-1676, 46556 is a payload satellite owned by SpaceX/Seattle (US) in LEO that was launched on Tue, 06 Oct 2020 UTC via an FALCON 9 launch vehicle from the Air Force Eastern Test Range (AFETR). Payload-class satellites include a variety of spacecraft equipped with specific instruments for various scientific and technological missions. These include communications satellites like Starlink; space stations such as the ISS; scientific satellites like the Hubble; Earth observation satellites from companies like Planet Labs, Umbra, and HawkEye 360; GPS; miniature CubeSats for education and research; and military/defense satellites.

Loading next visibility...
Identifier
46556, 2020-070AA
Orbit
LEO
Country
Flag of USUS
Related business
Manufacturer
SpaceX/Seattle
Mission
Operational Commercial Communications
Bus & Motor
STARLINK, Unknown motor
Mass
260 kg wet, ~248 kg dry
Launch date (UTC)
2020-10-06 (5 years ago)
Launch vehicle
FALCON 9
Launch site
Air Force Eastern Test Range (AFETR)
Object type
Payload
Rocket body
Debris
Shape & HBR
Box + 1 Pan, 10.1 m
Radar Cross Section
13.562 m², Large (>1 m²)

Expand to show TLE details & history
Last TLE update: 18 hours ago

TLE from 18 hours ago
0 STARLINK-1676
1 46556U 20070AA  25297.00004630  .00076544  00000-0  27977-2 0  9993
2 46556  53.0583  69.1417 0000977  85.7034  92.1774 15.27424169  5848
Epoch: 2025-10-24T00:00Z
TLE epoch observation values (Epoch: 2025-10-24T00:00:04.000Z)
Latitude
1.61487°
Longitude
-144.73422°
Altitude
484.234 km
Speed
7.625 km/s
True Right ascension
16h 31m 44s
True Declination
1° 36' 17"
Sunlit
Object was in daylight at epoch
Visualization orbit readout
Latitude
Unknown
Longitude
Unknown
Altitude
Unknown
Speed
Unknown
Apparent Right ascension
Unknown
Apparent Declination
Unknown
Sunlit
N/A
Visualization observer readout
Local Sidereal Time
13:05:39
Azimuth
Unknown
Elevation
Unknown
Doppler factor
Unknown
Orbital elements
Apogee altitude
484.459 km
Perigee altitude
483.118 km
Semi-major axis
6,861.925 km
Eccentricity
0.0001
Inclination
53.0583°
RAAN
69.1417°
Arg. of periapsis
85.7034°
True anomaly
92.18859°
Mean anomaly
92.1774°
Eccentric anomaly
92.18299°
Mean motion
3.81834 °/min
Orbital period
94.28 mins
BSTAR
0.0027977
Loading maneuver chart data...
Computing Atmospheric mass density...
Loading historical data...
Loading historical data...
Loading historical data...
Loading historical data...
Loading historical data...
Loading historical data...
Loading historical data...

Documentation

Showing up to 5 results
|